FW9817 Weather Reports


time (UTC)temp
C
wind
direction
speed
KPH
gust
KPH
rain 1hr
cm
rain 24hr
cm
rain mn
cm
humidity
%
barometer
mb
20260504201558 20 56 3.2 16.1 0.00 0.00 0.00 36 1004.2
20260504200100 20 238 4.8 17.7 0.00 0.00 0.00 35 1004.3
20260504194559 20 329 4.8 20.9 0.00 0.00 0.00 37 1004.6
20260504193058 19 22 4.8 14.5 0.00 0.00 0.00 38 1004.7
20260504191604 18 244 3.2 16.1 0.00 0.00 0.00 41 1004.6
20260504190058 18 309 6.4 14.5 0.00 0.00 0.00 40 1004.7
20260504184603 18 203 4.8 20.9 0.00 0.00 0.00 41 1004.8
20260504183105 18 323 3.2 11.3 0.00 0.00 0.00 40 1004.9
20260504181605 17 0 3.2 9.7 0.00 0.00 0.00 42 1004.8
20260504180121 16 0 1.6 8.0 0.00 0.00 0.00 45 1005.2
20260504174559 16 8 6.4 20.9 0.00 0.00 0.00 43 1005.2
20260504173109 16 345 6.4 16.1 0.00 0.00 0.00 43 1005.3
20260504171612 16 271 4.8 24.1 0.00 0.00 0.00 42 1005.1
20260504160110 16 333 8.0 24.1 0.00 0.00 0.00 41 1005.1
20260504150104 16 11 11.3 30.6 0.00 0.00 0.00 41 1005.6
20260504130110 11 155 1.6 3.2 0.00 0.00 0.00 62 1007.0
20260504120109 9 0 0.0 0.0 0.00 0.00 0.00 69 1007.7
20260504100106 4 0 0.0 0.0 0.00 0.00 0.00 76 1007.7
20260504081558 4 0 0.0 0.0 0.00 0.00 0.00 75 1007.9
20260504050106 4 0 0.0 1.6 0.00 0.03 0.00 66 1007.7
20260504044600 4 336 1.6 4.8 0.00 0.03 0.00 65 1007.7
20260504043100 4 344 1.6 4.8 0.00 0.03 0.00 68 1007.7
20260504041612 3 328 0.0 3.2 0.00 0.03 0.00 69 1007.6
20260504034618 2 0 0.0 0.0 0.00 0.03 0.03 77 1007.4
20260504033057 2 0 0.0 0.0 0.00 0.03 0.03 77 1007.4
20260504031558 2 0 0.0 0.0 0.00 0.03 0.03 76 1007.4
20260504030056 2 342 0.0 1.6 0.00 0.03 0.03 76 1007.5
20260504024559 3 0 0.0 1.6 0.00 0.18 0.03 74 1007.6
20260504023056 3 0 0.0 0.0 0.00 0.18 0.03 72 1007.6
20260504021559 4 0 0.0 0.0 0.00 0.18 0.03 65 1007.5
20260504020124 4 0 0.0 0.0 0.00 0.18 0.03 65 1007.5
20260504014602 5 0 0.0 0.0 0.00 0.18 0.03 62 1007.6
20260504013118 5 0 0.0 0.0 0.00 0.18 0.03 59 1007.5
20260504011557 6 0 0.0 1.6 0.00 0.18 0.03 56 1007.5
20260504010101 6 335 1.6 1.6 0.00 0.18 0.03 56 1007.3
20260504004559 6 0 0.0 3.2 0.00 0.20 0.03 56 1007.0
20260504003057 6 350 0.0 4.8 0.00 0.20 0.03 54 1006.7
20260504001600 7 0 0.0 3.2 0.00 0.20 0.03 54 1006.7
20260504000108 7 337 0.0 3.2 0.00 0.20 0.03 51 1006.5
20260503234559 7 303 0.0 4.8 0.00 0.25 0.03 49 1006.4
20260503233059 8 333 1.6 11.3 0.00 0.25 0.03 48 1006.1
20260503231559 9 335 1.6 8.0 0.00 0.25 0.03 45 1006.0
20260503224606 9 329 3.2 11.3 0.00 0.25 0.03 45 1005.9
20260503223058 9 344 1.6 12.9 0.00 0.25 0.03 46 1005.8
20260503221609 8 3 1.6 14.5 0.00 0.25 0.03 47 1005.6
20260503220100 9 322 3.2 12.9 0.00 0.25 0.03 45 1005.6
20260503214601 9 323 3.2 12.9 0.00 0.38 0.03 46 1005.5
20260503213103 9 219 1.6 6.4 0.00 0.38 0.03 45 1005.5
20260503211559 9 337 4.8 14.5 0.00 0.38 0.03 46 1005.7
20260503210058 9 338 4.8 12.9 0.00 0.38 0.03 45 1005.3
20260503204621 10 347 6.4 16.1 0.00 0.38 0.03 44 1005.4
20260503203102 10 341 4.8 12.9 0.00 0.38 0.03 46 1005.0